シュピターラー彗星

113P/Spitaler (2015)

English version
Home page
Updated on January 17, 2017

---------------------------------------------------------------------

・ プロフィール

・ 写真集

・ 軌道要素

Epoch 2014 Dec. 9.0 TT = JDT 2457000.5
T 2015 Apr. 23.71583 TT                                 MPCW
q   2.1188797            (2000.0)            P               Q
n   0.13949152     Peri.   50.00913     +0.43312422     -0.90098734
a   3.6821730      Node    14.38629     +0.79325658     +0.36787042
e   0.4245573      Incl.    5.77593     +0.42795726     +0.22998514
P   7.07
From 475 observations 1993 Oct. 19-2015 Jan. 20, mean residual 0".9.
     Nongravitational parameters A1 = +0.11, A2 = -0.0018.

・ 光度変化

        m1 = 13.5 + 5 logΔ + 10.0 log r(t - 40)

---------------------------------------------------------------------

軌道要素はM.P.E.C. 2015-E14に掲載されたものです。
光度グラフはComet for Windowsで作成したものです。

---------------------------------------------------------------------

Copyright(C) Seiichi Yoshida (comet@aerith.net). All rights reserved.